This demonstration page uses our WeatherBlox Daily Observations layout. Learn more.

Left ArrowRight Arrow

39.51506, -84.39828

Hourly Observations for June 5, 2015

Temp ( °F °C ) Dew Point ( °F °C ) Humidity (%) Winds ( mph kmh ) Pressure ( in mb ) Visibility ( mi km ) Precip ( " mm )
12:15 am 00:15 Clear 63 17 58 14.6 86 86 N N/A 30.03 1017 10 16 N/A
12:35 am 00:35 Clear 62 16.7 58 14.6 88 88 N N/A 30.03 1017 10 16 N/A
12:55 am 00:55 Clear 62 16.9 58 14.7 87 87 ENE 3 6 30.03 1017 7 11 N/A
1:15 am 01:15 Clear 62 16.6 58 14.6 88 88 N N/A 30.03 1017 7 11 N/A
1:35 am 01:35 Clear 61 16 57 14 88 88 N N/A 30.03 1017 7 11 N/A
1:55 am 01:55 Clear 61 16 57 14 88 88 N N/A 30.03 1017 7 11 N/A
2:15 am 02:15 Clear with Mist and Fog 60 15.8 57 13.8 88 88 N N/A 30.03 1017 5 8 N/A
2:35 am 02:35 Clear 60 15.7 57 13.9 89 89 N N/A 30.03 1017 7 11 N/A
2:55 am 02:55 Clear with Mist and Fog 60 15.3 56 13.5 89 89 N N/A 30.06 1018 4 6 N/A
3:15 am 03:15 Clear with Mist and Fog 60 15.3 56 13.5 89 89 N N/A 30.06 1018 3 4 N/A
3:35 am 03:35 Mostly Cloudy with Mist and Fog 60 15.3 56 13.5 89 89 N N/A 30.06 1018 2 3 N/A
3:55 am 03:55 Mostly Cloudy with Fog 59 15.2 56 13.5 90 90 N N/A 30.06 1018 1 1 N/A
4:15 am 04:15 Clear with Mist and Fog 60 15.3 56 13.6 90 90 N N/A 30.06 1018 4 6 N/A
4:35 am 04:35 Mostly Cloudy with Mist and Fog 57 13.9 54 12.2 90 90 N N/A 30.06 1018 1 2 N/A
4:55 am 04:55 Mostly Cloudy with Fog 58 14.3 55 12.6 90 90 N N/A 30.06 1018 1 1 N/A
5:15 am 05:15 Mostly Cloudy with Fog 57 14.1 55 12.5 90 90 N N/A 30.06 1018 0 0 N/A
5:35 am 05:35 Mostly Cloudy with Mist and Fog 57 13.8 54 12.1 90 90 N N/A 30.06 1018 2 3 N/A
5:55 am 05:55 Clear with Mist and Fog 57 13.8 54 12.2 90 90 N N/A 30.06 1018 2 3 N/A
6:15 am 06:15 Mostly Cloudy with Mist and Fog 57 13.7 54 12 90 90 N N/A 30.06 1018 1 1 N/A
6:35 am 06:35 Mostly Cloudy with Mist and Fog 57 13.7 54 12.1 90 90 N N/A 30.06 1018 2 2 N/A
6:55 am 06:55 Sunny with Mist and Fog 57 13.8 54 12.2 90 90 N N/A 30.06 1018 3 5 N/A
7:15 am 07:15 Sunny with Mist and Fog 57 13.9 54 12.3 90 90 N N/A 30.06 1018 3 5 N/A
7:35 am 07:35 Sunny with Mist and Fog 60 15.3 57 13.7 90 90 N N/A 30.06 1018 3 5 N/A
7:55 am 07:55 Sunny with Mist and Fog 62 16.5 59 14.8 90 90 N N/A 30.06 1018 4 6 N/A
8:15 am 08:15 Sunny with Mist and Fog 64 17.5 60 15.8 90 90 N N/A 30.06 1018 5 8 N/A
8:35 am 08:35 Sunny with Mist and Fog 68 20.2 65 18.3 89 89 N N/A 30.06 1018 5 8 N/A
8:55 am 08:55 Mostly Cloudy 69 20.8 64 17.5 82 82 N N/A 30.06 1018 7 11 N/A
9:15 am 09:15 Cloudy 69 20.8 62 16.5 77 77 N N/A 30.03 1017 7 11 N/A
9:35 am 09:35 Cloudy 69 20.8 61 16 74 74 N N/A 30.03 1017 10 16 N/A
9:55 am 09:55 Cloudy 74 23.2 64 18 73 73 N N/A 30.03 1017 10 16 N/A
10:15 am 10:15 Mostly Cloudy 74 23.6 64 17.9 70 70 N N/A 30.03 1017 7 11 N/A
10:35 am 10:35 Partly Cloudy 74 23.6 63 17 67 67 N N/A 30.03 1017 7 11 N/A
10:55 am 10:55 Mostly Cloudy 76 24.4 64 17.7 66 66 SW 3 6 30.03 1017 10 16 N/A
11:15 am 11:15 Partly Cloudy 77 25.1 63 17.2 62 62 N N/A 30.03 1017 10 16 N/A
11:35 am 11:35 Sunny 80 26.5 62 16.5 54 54 SW 3 6 30.03 1017 10 16 N/A
11:55 am 11:55 Sunny 80 26.5 63 17 56 56 SSW 3 6 30.03 1017 10 16 N/A
12:15 pm 12:15 Partly Cloudy 80 26.6 62 16.5 54 54 SW 8 13 30.03 1017 10 16 N/A
12:35 pm 12:35 Mostly Cloudy 80 26.7 60 15.8 51 51 W 8 13 30.03 1017 10 16 N/A
12:55 pm 12:55 Partly Cloudy 82 27.8 62 16.6 51 51 NW 3 6 30.03 1017 10 16 N/A
1:15 pm 13:15 Partly Cloudy 82 27.7 62 16.8 51 51 W 3 6 30.00 1016 10 16 N/A
1:35 pm 13:35 Mostly Cloudy 82 27.6 61 16.2 50 50 NW 10 17 30.00 1016 10 16 N/A
1:55 pm 13:55 Partly Cloudy 82 28 61 16.2 49 49 NNE 3 6 30.00 1016 10 16 N/A
2:15 pm 14:15 Partly Cloudy 84 28.9 62 16.4 47 47 N N/A 29.97 1015 10 16 N/A
2:35 pm 14:35 Partly Cloudy 86 29.8 61 15.9 43 43 W 5 7 29.97 1015 10 16 N/A
2:55 pm 14:55 Partly Cloudy 83 28.1 59 15.1 45 45 N N/A 29.94 1014 10 16 N/A
3:15 pm 15:15 Partly Cloudy 83 28.2 59 15.1 45 45 W 3 6 29.94 1014 10 16 N/A
3:35 pm 15:35 Sunny 86 30.2 61 16.3 43 43 SSW 6 9 29.94 1014 10 16 N/A
3:55 pm 15:55 Partly Cloudy 83 28.3 59 14.8 44 44 S 5 7 29.94 1014 10 16 N/A
4:15 pm 16:15 Partly Cloudy 84 28.9 58 14.3 41 41 W 3 6 29.94 1014 10 16 N/A
4:35 pm 16:35 Mostly Cloudy 84 28.7 60 15.8 46 46 WSW 5 7 29.94 1014 10 16 N/A
4:55 pm 16:55 Mostly Cloudy 87 30.7 61 15.9 41 41 WNW 7 11 29.91 1013 10 16 N/A
5:15 pm 17:15 Partly Cloudy 89 31.9 60 15.3 37 37 NW 6 9 29.91 1013 10 16 N/A
5:35 pm 17:35 Sunny 90 32 60 15.5 37 37 W 5 7 29.91 1013 10 16 N/A
5:55 pm 17:55 Mostly Cloudy 83 28.4 62 16.7 49 49 ENE 6 9 29.91 1013 10 16 N/A
6:15 pm 18:15 Cloudy with Rain 80 26.5 66 18.9 63 63 NNE 3 6 29.94 1014 10 16 N/A
6:35 pm 18:35 Mostly Cloudy 83 28.1 64 17.5 53 53 N N/A 29.91 1013 10 16 N/A
6:55 pm 18:55 Partly Cloudy 81 27.2 65 18.1 58 58 N N/A 29.94 1014 10 16 N/A
7:15 pm 19:15 Partly Cloudy 80 26.5 70 21.1 72 72 N N/A 29.94 1014 10 16 N/A
7:35 pm 19:35 Mostly Cloudy 82 27.8 67 19.2 60 60 N 3 6 29.91 1013 10 16 N/A
7:55 pm 19:55 Partly Cloudy 80 26.5 63 17.1 56 56 N 7 11 29.94 1014 10 16 N/A
8:15 pm 20:15 Mostly Cloudy 80 26.5 63 17.2 57 57 NNW 6 9 29.94 1014 10 16 N/A
8:35 pm 20:35 Partly Cloudy 80 26.5 62 16.7 55 55 N 6 9 29.94 1014 10 16 N/A
8:55 pm 20:55 Partly Cloudy 80 26.5 62 16.4 54 54 N 6 9 29.94 1014 10 16 N/A
9:15 pm 21:15 Clear 80 26.4 61 15.9 53 53 N 5 7 29.94 1014 10 16 N/A
9:35 pm 21:35 Clear 77 25.1 61 16 57 57 N 3 6 29.94 1014 10 16 N/A
9:55 pm 21:55 Clear 74 23.6 59 15.2 59 59 NNW 6 9 29.97 1015 10 16 N/A
10:15 pm 22:15 Clear 74 23.6 60 15.7 61 61 N 5 7 29.97 1015 10 16 N/A
10:35 pm 22:35 Clear 74 23.6 62 16.5 65 65 NNW 5 7 29.97 1015 10 16 N/A
10:55 pm 22:55 Clear 74 23.6 61 15.9 62 62 NNW 5 7 29.97 1015 10 16 N/A
11:15 pm 23:15 Clear 74 23.6 60 15.6 61 61 NNW 5 7 29.97 1015 10 16 N/A
11:35 pm 23:35 Clear 74 23.6 60 15.6 61 61 NNW 6 9 29.97 1015 10 16 N/A
11:55 pm 23:55 Clear 74 23.6 59 15 59 59 N 9 15 29.97 1015 10 16 N/A

Powered by AerisWeather